SL-14 DEB, 45270

Orbit data source: Space-Track

SL-14 DEB, 45270 is space debris in LEO originally from a launch on Thu, 15 Aug 1991 UTC launched from the Plesetsk Missile And Space Complex (PKMTR). Debris objects in space refer to the collection of defunct objects orbiting the Earth. Examples of debris include non-operational satellites, rocket bodies, and fragments generated from explosions, collisions, or faulty payload assembly.

Loading next visibility...
Identifier
45270, 1991-056G
Orbit
LEO
Country
Flag of CISCIS
Related business
Manufacturer
Unknown
Mission
Spacecraft
Bus & Motor
Unknown
Mass
Unknown
Launch date (UTC)
1991-08-15 (35 years ago)
Launch vehicle
Unknown
Launch site
Plesetsk Missile And Space Complex (PKMTR)
Object type
Payload
Rocket body
Debris
Shape & HBR
Unknown shape, 0.1 m
Radar Cross Section
Medium (>0.1 m² and <1 m²)

Expand to show TLE details & history
Last TLE update: 11 hours ago

TLE from 11 hours ago
0 SL-14 DEB
1 45270U 91056G   26174.85345119  .00000118  00000-0  25099-3 0  9993
2 45270  82.5674 122.8129 0034115  27.4937 332.7984 13.22446417306934
Epoch: 2026-06-23T20:28Z
TLE epoch observation values (Epoch: 2026-06-23T20:28:58.182Z)
Latitude
-0.00002°
Longitude
-96.44858°
Altitude
1,155.301 km
Speed
7.286 km/s
True Right ascension
08h 11m 15s
True Declination
0° 00' 00"
Sunlit
Object was in daylight at epoch
Visualization orbit readout
Latitude
Unknown
Longitude
Unknown
Altitude
Unknown
Speed
Unknown
Apparent Right ascension
Unknown
Apparent Declination
Unknown
Sunlit
N/A
Visualization observer readout
Local Sidereal Time
19:02:38
Azimuth
Unknown
Elevation
Unknown
Doppler factor
Unknown
Orbital elements
Apogee altitude
1,198.386 km
Perigee altitude
1,146.867 km
Semi-major axis
7,550.763 km
Eccentricity
0.00341
Inclination
82.5674°
RAAN
122.8129°
Arg. of periapsis
27.4937°
True anomaly
332.61902°
Mean anomaly
332.7984°
Eccentric anomaly
332.70878°
Mean motion
3.30793 °/min
Orbital period
108.83 mins
BSTAR
0.00025099
Loading maneuver chart data...
Computing Atmospheric mass density...
Loading historical data...
Loading historical data...
Loading historical data...
Loading historical data...
Loading historical data...
Loading historical data...
Loading historical data...

Documentation

Showing up to 5 results
|